DECAYED

DMSP 5D-2 F13 DEB, 40435 (Decayed)

Orbit data source: Space-Track

DMSP 5D-2 F13 DEB, 40435 was space debris in SSO originally from a launch on Fri, 24 Mar 1995 UTC launched from the Air Force Western Test Range (AFWTR). Debris objects in space refer to the collection of defunct objects orbiting the Earth. Examples of debris include non-operational satellites, rocket bodies, and fragments generated from explosions, collisions, or faulty payload assembly.

Not visible in the next 10 days
DMSP 5D-2 F13 DEB details
Identifier
40435, 1995-015AM
Orbit
Decayed
Last TLE update4 months ago
Origin
Flag of USUSAF SMC (US)
ManufacturerUnknown
MissionDecayed spacecraft
Bus & MotorUnknown
MassUnknown
Launch date (UTC)
1995-03-24 (30 years ago)
Launch vehicleUnknown
Launch site
Air Force Western Test Range (AFWTR)
Object type
Payload
Rocket body
Debris
Shape & HBRUnknown
Radar Cross SectionSmall (<0.1 m²)

Expand to show TLE details & history

TLE from 4 months ago
0 DMSP 5D-2 F13 DEB
1 40435U 95015AM  24226.22020656  .07104449  00000-0  15799+0 0  9994
2 40435  98.8381 120.9306 0019147  85.1354 275.2072 15.38851614488584
Epoch: 2024-08-13T05:17Z
Definitive object data (Epoch: 2024-08-13T05:17:05.846Z)
Latitude-0.00009°
Longitude79.51592°
Altitude451.413 km
Speed7.642 km/s
True Right ascension08h 03m 43s
True Declination0° 00' 00"
Sunlit
Object was in daylight at TLE epoch
Visualization observer readout
Observer readout values are unavailable because the object's trajectory could not be propagated. This is usually caused when the trajectory data is faulty or the object's orbit has decayed.
Visualization observer readout
Observer readout values are unavailable because the object's trajectory could not be propagated. This is usually caused when the trajectory data is faulty or the object's orbit has decayed.
Orbital elements
Apogee altitude459.579 km
Perigee altitude433.445 km
Semi-major axis6,824.649 km
Eccentricity0.0019147
Inclination98.8381°
RAAN120.9306°
Arg. of periapsis85.1354°
True anomaly274.98865°
Mean anomaly275.2072°
Eccentric anomaly275.09793°
Mean motion3.84966 °/min
BSTAR0.15799
Orbital period93.51 mins
Loading maneuver chart data...

DMSP 5D-2 F13 DEB Visibility forecast

Observer location: undefined°, undefined

This satellite is decayed
Span
Click to sort rows by Start time (UTC) header in descending order
Start Az.
Max El. time (UTC)
Max El. Az.
Max El.
End time (UTC)
End Az.
|